sat.trackr.live / text

‹ back to catalog

STARLINK-32827

NORAD 63043 · 2025-034Q

PAYLOAD ACTIVE UNKNOWN

§ Identity

Operator
Country
US
Launch date
2025-02-18
Launch site
AFETR
Launch vehicle
Mass (kg)
RCS (m²)

Purposes: comms

External: N2YO · Heavens-Above · Gunter

§ Orbital elements

Epoch: 2026-05-24T18:51:38.672064Z

Period
93.85 min
Inclination
53.1594°
Eccentricity
0.0000538
Mean motion
15.34401750 rev/d
Perigee alt
462.3 km
Apogee alt
463.1 km
Semi-major
6,840.8 km
B*
4.1780e-4
RAAN
277.0160°
Arg perigee
93.0185°
Mean anomaly
267.0879°
Rev number
7,056

§ Raw data

STARLINK-328271 63043U 25034Q   26144.78586426  .00013767  00000+0  41780-3 0  99992 63043  53.1594 277.0160 0000538  93.0185 267.0879 15.34401750 70567

JSON: /api/v1/satellites/63043 · /tle

For live sub-satellite position, see the globe view (requires WebGL).

§ Visibility from observer

Set your observer location to see the next 7 days of passes ≥ 10°. The values pass through the URL so the page stays shareable.

No JS? Fill the form by hand. The geolocation button needs JavaScript.